When you browse on this site, cookies collect data to enhance your experience and personalize the content and advertising you see.
Visit our Privacy Policy to learn more. By continuing to use the site, you agree to this use of cookies and data.
  • In Sweden
  • List of Countries
  • For 7 days
  • Water Temperature
  • Satellite Maps
  • Weather Map
  • Weather Widgets
  • user-avatar
    Login

    Hourly Weather Starny

    Today, 25 May, Saturday

    Time Temperature Precipitation Wind Pressure Humidity
    00:00 +14°C° 0 mm 1 mps 742 mmHg 93%
    01:00 +14°C° 0 mm 1 mps 742 mmHg 95%
    02:00 +13°C° 0 mm 1 mps 742 mmHg 98%
    03:00 +14°C° 0.5 mm 1 mps 741 mmHg 98%
    04:00 +14°C° 0.5 mm 1 mps 741 mmHg 98%
    05:00 +14°C° 0.5 mm 1 mps 741 mmHg 98%
    06:00 +15°C° 0.3 mm 1 mps 741 mmHg 96%
    07:00 +16°C° 0.3 mm 1 mps 741 mmHg 94%
    08:00 +18°C° 0.3 mm 1 mps 741 mmHg 92%
    09:00 +18°C° 0.1 mm 1 mps 740 mmHg 91%
    10:00 +19°C° 0.1 mm 1 mps 740 mmHg 90%
    11:00 +19°C° 0.1 mm 1 mps 740 mmHg 88%
    12:00 +20°C° 0.6 mm 1 mps 740 mmHg 85%
    13:00 +21°C° 0.6 mm 1 mps 740 mmHg 81%
    14:00 +21°C° 0.6 mm 1 mps 739 mmHg 78%
    15:00 +21°C° 0.8 mm 1 mps 739 mmHg 79%
    16:00 +20°C° 0.8 mm 2 mps 739 mmHg 80%
    17:00 +20°C° 0.8 mm 2 mps 739 mmHg 81%
    18:00 +18°C° 0.1 mm 2 mps 739 mmHg 83%
    19:00 +17°C° 0.1 mm 2 mps 739 mmHg 85%
    20:00 +15°C° 0.1 mm 2 mps 739 mmHg 87%
    21:00 +14°C° 0 mm 2 mps 739 mmHg 89%
    22:00 +13°C° 0 mm 2 mps 739 mmHg 92%
    23:00 +12°C° 0 mm 2 mps 739 mmHg 94%

    Tomorrow, 26 May, Sunday

    Time Temperature Precipitation Wind Pressure Humidity
    00:00 +12°C° 0 mm 2 mps 739 mmHg 95%
    01:00 +10°C° 0 mm 2 mps 740 mmHg 96%
    02:00 +9°C° 0 mm 2 mps 740 mmHg 97%
    03:00 +9°C° 0 mm 2 mps 740 mmHg 96%
    04:00 +9°C° 0 mm 2 mps 740 mmHg 95%
    05:00 +8°C° 0 mm 2 mps 740 mmHg 94%
    06:00 +10°C° 0 mm 2 mps 741 mmHg 87%
    07:00 +12°C° 0 mm 2 mps 741 mmHg 79%
    08:00 +14°C° 0 mm 2 mps 741 mmHg 71%
    09:00 +15°C° 0 mm 2 mps 741 mmHg 65%
    10:00 +17°C° 0 mm 3 mps 740 mmHg 59%
    11:00 +18°C° 0 mm 3 mps 740 mmHg 52%
    12:00 +19°C° 0 mm 3 mps 740 mmHg 51%
    13:00 +19°C° 0 mm 3 mps 740 mmHg 50%
    14:00 +20°C° 0 mm 4 mps 740 mmHg 49%
    15:00 +19°C° 0 mm 4 mps 739 mmHg 50%
    16:00 +19°C° 0 mm 4 mps 739 mmHg 52%
    17:00 +19°C° 0 mm 4 mps 739 mmHg 53%
    18:00 +17°C° 0 mm 4 mps 739 mmHg 59%
    19:00 +15°C° 0 mm 4 mps 739 mmHg 65%
    20:00 +14°C° 0 mm 3 mps 739 mmHg 71%
    21:00 +13°C° 0 mm 3 mps 739 mmHg 73%
    22:00 +12°C° 0 mm 3 mps 739 mmHg 75%
    23:00 +11°C° 0 mm 3 mps 740 mmHg 77%

    Day after tomorrow, 27 May, Monday

    Time Temperature Precipitation Wind Pressure Humidity
    00:00 +10°C° 0 mm 3 mps 740 mmHg 80%
    01:00 +9°C° 0 mm 3 mps 740 mmHg 84%
    02:00 +9°C° 0 mm 3 mps 740 mmHg 87%
    03:00 +9°C° 0 mm 3 mps 740 mmHg 87%
    04:00 +9°C° 0 mm 3 mps 740 mmHg 87%
    05:00 +9°C° 0 mm 3 mps 740 mmHg 87%
    06:00 +10°C° 0 mm 4 mps 741 mmHg 84%
    07:00 +11°C° 0 mm 4 mps 741 mmHg 80%
    08:00 +12°C° 0 mm 4 mps 741 mmHg 77%
    09:00 +14°C° 0.1 mm 4 mps 741 mmHg 73%
    10:00 +15°C° 0.1 mm 5 mps 741 mmHg 68%
    11:00 +16°C° 0.1 mm 5 mps 742 mmHg 63%
    12:00 +18°C° 0 mm 4 mps 742 mmHg 60%
    13:00 +19°C° 0 mm 4 mps 742 mmHg 57%
    14:00 +19°C° 0 mm 4 mps 742 mmHg 54%
    15:00 +19°C° 0 mm 3 mps 742 mmHg 60%
    16:00 +19°C° 0 mm 3 mps 742 mmHg 66%
    17:00 +18°C° 0 mm 2 mps 742 mmHg 72%
    18:00 +17°C° 0.7 mm 2 mps 741 mmHg 79%
    19:00 +16°C° 0.7 mm 2 mps 741 mmHg 87%
    20:00 +15°C° 0.7 mm 2 mps 741 mmHg 94%
    21:00 +15°C° 0.6 mm 2 mps 741 mmHg 95%
    22:00 +15°C° 0.6 mm 2 mps 742 mmHg 96%
    23:00 +15°C° 0.6 mm 2 mps 742 mmHg 97%

    28 May, Tuesday

    Time Temperature Precipitation Wind Pressure Humidity
    00:00 +15°C° 0 mm 2 mps 742 mmHg 97%
    01:00 +14°C° 0 mm 2 mps 742 mmHg 98%
    02:00 +13°C° 0 mm 2 mps 743 mmHg 99%
    03:00 +13°C° 0 mm 2 mps 743 mmHg 98%
    04:00 +13°C° 0 mm 1 mps 743 mmHg 98%
    05:00 +13°C° 0 mm 1 mps 743 mmHg 98%
    06:00 +15°C° 0 mm 1 mps 744 mmHg 93%
    07:00 +16°C° 0 mm 1 mps 744 mmHg 88%
    08:00 +19°C° 0 mm 1 mps 744 mmHg 83%
    09:00 +19°C° 0.1 mm 2 mps 744 mmHg 78%
    10:00 +21°C° 0.1 mm 2 mps 745 mmHg 73%
    11:00 +23°C° 0.1 mm 2 mps 745 mmHg 68%
    12:00 +24°C° 0.5 mm 2 mps 745 mmHg 68%
    13:00 +24°C° 0.5 mm 2 mps 744 mmHg 67%
    14:00 +25°C° 0.5 mm 2 mps 744 mmHg 67%
    15:00 +24°C° 0.9 mm 2 mps 744 mmHg 73%
    16:00 +24°C° 0.9 mm 2 mps 744 mmHg 79%
    17:00 +23°C° 0.9 mm 2 mps 744 mmHg 85%
    18:00 +21°C° 1.1 mm 2 mps 743 mmHg 88%
    19:00 +20°C° 1.1 mm 2 mps 743 mmHg 92%
    20:00 +19°C° 1.1 mm 3 mps 743 mmHg 95%
    21:00 +18°C° 0.2 mm 3 mps 743 mmHg 95%
    22:00 +18°C° 0.2 mm 3 mps 742 mmHg 95%
    23:00 +18°C° 0.2 mm 3 mps 742 mmHg 95%

    29 May, Wednesday

    Time Temperature Precipitation Wind Pressure Humidity
    00:00 +18°C° 0 mm 3 mps 742 mmHg 96%
    01:00 +18°C° 0 mm 3 mps 742 mmHg 96%
    02:00 +17°C° 0 mm 2 mps 742 mmHg 97%
    03:00 +17°C° 0 mm 3 mps 742 mmHg 96%
    04:00 +17°C° 0 mm 3 mps 742 mmHg 96%
    05:00 +17°C° 0 mm 3 mps 742 mmHg 96%
    06:00 +19°C° 0 mm 3 mps 742 mmHg 89%
    07:00 +20°C° 0 mm 4 mps 742 mmHg 83%
    08:00 +21°C° 0 mm 4 mps 742 mmHg 77%
    09:00 +23°C° 0 mm 5 mps 742 mmHg 70%
    10:00 +25°C° 0 mm 5 mps 742 mmHg 63%
    11:00 +26°C° 0 mm 5 mps 742 mmHg 55%
    12:00 +27°C° 0 mm 6 mps 742 mmHg 54%
    13:00 +27°C° 0 mm 6 mps 741 mmHg 54%
    14:00 +28°C° 0 mm 6 mps 741 mmHg 53%
    15:00 +27°C° 0.2 mm 6 mps 741 mmHg 59%
    16:00 +26°C° 0.2 mm 5 mps 741 mmHg 65%
    17:00 +26°C° 0.2 mm 5 mps 740 mmHg 70%
    18:00 +23°C° 0.7 mm 4 mps 740 mmHg 77%
    19:00 +21°C° 0.7 mm 4 mps 740 mmHg 84%
    20:00 +20°C° 0.7 mm 3 mps 740 mmHg 90%
    21:00 +19°C° 0 mm 3 mps 740 mmHg 91%
    22:00 +19°C° 0 mm 3 mps 740 mmHg 92%
    23:00 +18°C° 0 mm 3 mps 740 mmHg 92%

    30 May, Thursday

    Time Temperature Precipitation Wind Pressure Humidity
    00:00 +18°C° 0 mm 3 mps 741 mmHg 94%
    01:00 +18°C° 0 mm 3 mps 741 mmHg 95%
    02:00 +17°C° 0 mm 3 mps 742 mmHg 96%
    03:00 +17°C° 0 mm 3 mps 742 mmHg 94%
    04:00 +16°C° 0 mm 3 mps 743 mmHg 93%
    05:00 +15°C° 0 mm 4 mps 744 mmHg 91%
    06:00 +14°C° 0 mm 4 mps 744 mmHg 87%
    07:00 +14°C° 0 mm 4 mps 745 mmHg 82%
    08:00 +13°C° 0 mm 3 mps 746 mmHg 78%
    09:00 +15°C° 0 mm 4 mps 746 mmHg 66%
    10:00 +17°C° 0 mm 4 mps 747 mmHg 54%
    11:00 +19°C° 0 mm 4 mps 748 mmHg 42%
    12:00 +19°C° 0 mm 4 mps 748 mmHg 40%
    13:00 +20°C° 0 mm 4 mps 748 mmHg 37%
    14:00 +20°C° 0 mm 4 mps 749 mmHg 35%
    15:00 +20°C° 0 mm 3 mps 749 mmHg 37%
    16:00 +19°C° 0 mm 3 mps 749 mmHg 40%
    17:00 +19°C° 0 mm 3 mps 749 mmHg 42%
    18:00 +17°C° 0 mm 2 mps 750 mmHg 51%
    19:00 +15°C° 0 mm 2 mps 750 mmHg 59%
    20:00 +14°C° 0 mm 1 mps 750 mmHg 67%
    21:00 +12°C° 0 mm 1 mps 750 mmHg 68%
    22:00 +11°C° 0 mm 1 mps 750 mmHg 70%
    23:00 +10°C° 0 mm 1 mps 751 mmHg 71%
    Show more